{"data":{"norad_id":53418,"intl_designator":"2022-097AG","name":"STARLINK-4481","alt_names":[],"object_type":"PAYLOAD","status":"ACTIVE","operator":null,"country":"US","launch_date":"2022-08-10","launch_site_code":"AFETR","launch_vehicle":null,"mission":null,"orbit_class":"UNKNOWN","rcs_meters":null,"size_class":null,"mass_kg":null,"dimensions":null,"purposes":["comms"],"wikipedia_slug":null,"has_3d_model":false,"image_url":null,"decayed_at":null,"tle_current":{"epoch":"2026-05-25T05:18:53.628192Z","epoch_age_seconds":59088,"freshness":"FRESH","line1":"1 53418U 22097AG  26145.22145403 -.00002909  00000+0 -16471-3 0  9993","line2":"2 53418  53.2129 120.1193 0001163  75.6176 284.4945 15.08849381210359","mean_motion":15.08849381,"eccentricity":0.0001163,"inclination_deg":53.2129,"raan_deg":120.1193,"arg_perigee_deg":75.6176,"mean_anomaly_deg":284.4945,"bstar":-0.00016471,"rev_number":21035,"period_min":95.436961311912,"perigee_km":538.91016899412,"apogee_km":540.51926130306,"semimajor_km":6917.8517151486,"source":"CELESTRAK","updated_at":"2026-05-25T13:38:17.402670Z"}}}